Weather History for New York, NY

Change the Weather History Date:

Friday, November 23, 2012

  Actual Average Record
Temperature  
Mean Temperature 48 °F 46 °F  
Max Temperature 55 °F 52 °F 70 °F (1992)
Min Temperature 41 °F 40 °F 23 °F (1972)
Degree Days  
Heating Degree Days 17 19  
Month to date heating degree days 426 361  
Since 1 July heating degree days 608 633  
Cooling Degree Days 0 0  
Month to date cooling degree days 0 0  
Year to date cooling degree days 1511 1213  
Moisture  
Dew Point 43 °F    
Average Humidity 80    
Maximum Humidity 100    
Minimum Humidity 59    
Precipitation  
Precipitation 0.03 in 0.11 in 1.35 in (2006)
Month to date precipitation 0.92 2.57  
Year to date precipitation 31.98 40.33  
Snow  
Snow 0.00 in 0.00 in 5.70 in (1989)
Month to date snowfall 1.1 0.1  
Since 1 July snowfall 1.1 0.1  
Snow Depth 0.00 in    
Sea Level Pressure  
Sea Level Pressure 29.92 in    
Wind  
Wind Speed 7 mph (SSW)    
Max Wind Speed 15 mph    
Max Gust Speed 20 mph    
Visibility 9 miles    
Events Rain    
T = Trace of Precipitation, MM = Missing Value Source: NWS Daily Summary

Daily Weather History Graph

Daily Weather History Graph

Search for Another Location

Airport:

Trip Planner

Search our weather history database for the weather conditions in past years. The results will help you decide how hot, cold, wet, or windy it might be!

Date:

Astronomy

Nov. 23, 2012 Rise Set
Actual Time 6:52 AM EST 4:31 PM EST
Civil Twilight 6:22 AM EST 5:01 PM EST
Nautical Twilight 5:48 AM EST 5:35 PM EST
Astronomical Twilight 5:15 AM EST 6:07 PM EST
Moon 1:46 PM EST (11/23) 2:07 AM EST (11/23)
Length of Visible Light 10h 39m
Length of Day
9h 39m
Waxing Gibbous, 79% of the Moon is Illuminated
Nov 23
Waxing Gibbous
Nov 28
Full
Dec 6
Last Quarter
Dec 13
New
Dec 20
First Quarter

Hourly Weather History & Observations

Time (EST) Temp. Windchill Dew Point Humidity Pressure Visibility Wind Dir Wind Speed Gust Speed Precip Events Conditions
12:51 AM 46.9 °F - 43.0 °F 86% 30.12 in 10.0 mi Calm Calm - N/A   Clear
1:51 AM 45.0 °F 43.5 °F 43.0 °F 93% 30.12 in 10.0 mi South 3.5 mph - N/A   Clear
2:51 AM 46.0 °F 44.8 °F 43.0 °F 89% 30.10 in 10.0 mi SSW 3.5 mph - N/A   Clear
3:51 AM 43.0 °F 41.3 °F 42.1 °F 97% 30.08 in 6.0 mi East 3.5 mph - N/A   Clear
4:51 AM 42.1 °F - 41.0 °F 96% 30.07 in 7.0 mi Calm Calm - N/A   Clear
5:51 AM 43.0 °F - 41.0 °F 93% 30.06 in 9.0 mi Calm Calm - N/A   Partly Cloudy
6:51 AM 44.1 °F 41.5 °F 41.0 °F 89% 30.04 in 9.0 mi SW 4.6 mph - N/A   Partly Cloudy
7:51 AM 46.0 °F 43.1 °F 42.1 °F 86% 30.04 in 8.0 mi South 5.8 mph - N/A   Scattered Clouds
8:51 AM 48.0 °F - 42.1 °F 80% 30.02 in 9.0 mi SSW 6.9 mph - N/A   Scattered Clouds
9:51 AM 51.8 °F - 41.0 °F 67% 30.00 in 10.0 mi SW 5.8 mph - N/A   Mostly Cloudy
10:51 AM 52.0 °F - 39.9 °F 63% 29.97 in 10.0 mi SW 8.1 mph - N/A   Mostly Cloudy
11:51 AM 54.0 °F - 41.0 °F 62% 29.91 in 9.0 mi SSW 8.1 mph - N/A   Mostly Cloudy
12:51 PM 54.0 °F - 39.0 °F 57% 29.89 in 9.0 mi SW 9.2 mph - N/A   Mostly Cloudy
1:51 PM 54.0 °F - 43.0 °F 66% 29.85 in 10.0 mi SSE 11.5 mph - N/A   Mostly Cloudy
2:51 PM 52.0 °F - 45.0 °F 77% 29.82 in 10.0 mi SSE 13.8 mph - N/A   Mostly Cloudy
3:51 PM 51.1 °F - 46.0 °F 83% 29.80 in 10.0 mi South 10.4 mph - N/A   Mostly Cloudy
4:51 PM 51.1 °F - 46.9 °F 86% 29.78 in 10.0 mi South 11.5 mph 19.6 mph N/A   Mostly Cloudy
5:51 PM 51.1 °F - 48.0 °F 89% 29.78 in 10.0 mi South 8.1 mph - N/A   Mostly Cloudy
6:51 PM 51.1 °F - 46.9 °F 86% 29.76 in 10.0 mi South 9.2 mph - N/A   Mostly Cloudy
7:51 PM 52.0 °F - 46.0 °F 80% 29.75 in 10.0 mi SSW 6.9 mph - N/A   Mostly Cloudy
8:51 PM 53.1 °F - 44.1 °F 71% 29.73 in 10.0 mi SSW 10.4 mph - 0.00 in Rain Light Rain
9:51 PM 51.1 °F - 45.0 °F 80% 29.72 in 8.0 mi SSW 9.2 mph - 0.01 in Rain Light Rain
10:51 PM 50.0 °F - 45.0 °F 83% 29.69 in 10.0 mi SSW 10.4 mph - 0.02 in   Overcast
11:51 PM 50.0 °F - 45.0 °F 83% 29.68 in 10.0 mi SSW 9.2 mph - 0.00 in Rain Light Rain